| time (UTC) | temp F | wind direction | speed knots | gust knots | rain 1hr in | rain 24hr in | rain mn in | humidity % | barometer mb |
| 20260507051537 | 52 | 271 | 3.5 | 5.2 | 0.00 | 0.00 | 0.00 | 87 | 1003.4 |
| 20260507051034 | 52 | 290 | 2.6 | 2.6 | 0.00 | 0.00 | 0.00 | 87 | 1003.4 |
| 20260507050530 | 52 | 283 | 1.7 | 1.7 | 0.00 | 0.00 | 0.00 | 87 | 1003.2 |
| 20260507050027 | 52 | 316 | 1.7 | 2.6 | 0.00 | 0.00 | 0.00 | 87 | 1003.3 |
| 20260507045523 | 52 | 292 | 1.7 | 2.6 | 0.00 | 0.00 | 0.00 | 87 | 1003.4 |
| 20260507045021 | 52 | 277 | 2.6 | 2.6 | 0.00 | 0.00 | 0.00 | 88 | 1003.2 |
| 20260507044518 | 52 | 349 | 1.7 | 2.6 | 0.00 | 0.00 | 0.00 | 87 | 1003.2 |
| 20260507044014 | 53 | 353 | 0.9 | 0.9 | 0.00 | 0.00 | 0.00 | 87 | 1003.2 |
| 20260507043510 | 53 | 312 | 0.9 | 1.7 | 0.00 | 0.00 | 0.00 | 87 | 1003.4 |
| 20260507043008 | 53 | 318 | 2.6 | 2.6 | 0.00 | 0.00 | 0.00 | 88 | 1003.1 |
| 20260507042503 | 53 | 303 | 3.5 | 4.3 | 0.00 | 0.00 | 0.00 | 88 | 1003.0 |
| 20260507041959 | 53 | 311 | 3.5 | 4.3 | 0.00 | 0.00 | 0.00 | 87 | 1003.2 |
| 20260507041456 | 53 | 276 | 2.6 | 2.6 | 0.00 | 0.00 | 0.00 | 87 | 1003.3 |
| 20260507040953 | 53 | 293 | 1.7 | 1.7 | 0.00 | 0.00 | 0.00 | 87 | 1003.5 |
| 20260507040449 | 53 | 294 | 2.6 | 2.6 | 0.00 | 0.00 | 0.00 | 86 | 1003.3 |
| 20260507035945 | 53 | 221 | 1.7 | 1.7 | 0.00 | 0.00 | 0.00 | 87 | 1003.2 |
| 20260507035442 | 53 | 283 | 2.6 | 4.3 | 0.00 | 0.00 | 0.00 | 86 | 1003.0 |
| 20260507034938 | 53 | 311 | 2.6 | 2.6 | 0.00 | 0.00 | 0.00 | 86 | 1002.9 |
| 20260507034435 | 54 | 349 | 2.6 | 2.6 | 0.00 | 0.00 | 0.00 | 86 | 1003.0 |
| 20260507033934 | 54 | 301 | 1.7 | 1.7 | 0.00 | 0.00 | 0.00 | 85 | 1002.8 |
| 20260507033431 | 54 | 303 | 2.6 | 2.6 | 0.00 | 0.00 | 0.00 | 84 | 1002.9 |
| 20260507032928 | 54 | 280 | 3.5 | 4.3 | 0.00 | 0.00 | 0.00 | 85 | 1002.7 |
| 20260507032425 | 54 | 307 | 2.6 | 2.6 | 0.00 | 0.00 | 0.00 | 85 | 1002.7 |
| 20260507031921 | 54 | 323 | 3.5 | 4.3 | 0.00 | 0.00 | 0.00 | 84 | 1002.8 |
| 20260507031417 | 54 | 350 | 3.5 | 5.2 | 0.00 | 0.00 | 0.00 | 83 | 1002.8 |
| 20260507030914 | 55 | 339 | 4.3 | 5.2 | 0.00 | 0.00 | 0.00 | 84 | 1002.8 |
| 20260507030412 | 55 | 349 | 2.6 | 4.3 | 0.00 | 0.00 | 0.00 | 84 | 1002.6 |
| 20260507025908 | 55 | 286 | 3.5 | 4.3 | 0.00 | 0.00 | 0.00 | 84 | 1002.8 |
| 20260507025406 | 55 | 343 | 1.7 | 1.7 | 0.00 | 0.00 | 0.00 | 84 | 1002.3 |
| 20260507024904 | 55 | 298 | 3.5 | 5.2 | 0.00 | 0.00 | 0.00 | 83 | 1002.6 |
| 20260507024400 | 55 | 339 | 2.6 | 2.6 | 0.00 | 0.00 | 0.00 | 83 | 1002.4 |
| 20260507023856 | 55 | 330 | 6.1 | 7.0 | 0.00 | 0.00 | 0.00 | 83 | 1002.6 |
| 20260507023353 | 55 | 304 | 5.2 | 7.0 | 0.00 | 0.00 | 0.00 | 84 | 1002.2 |
| 20260507022851 | 56 | 312 | 4.3 | 5.2 | 0.00 | 0.00 | 0.00 | 84 | 1002.3 |
| 20260507022347 | 56 | 301 | 5.2 | 7.8 | 0.00 | 0.00 | 0.00 | 83 | 1002.1 |
| 20260507021843 | 56 | 302 | 5.2 | 6.1 | 0.00 | 0.00 | 0.00 | 84 | 1002.3 |
| 20260507021338 | 57 | 331 | 6.1 | 7.0 | 0.00 | 0.00 | 0.00 | 84 | 1002.2 |
| 20260507020837 | 57 | 308 | 4.3 | 4.3 | 0.00 | 0.00 | 0.00 | 84 | 1002.3 |
| 20260507020333 | 57 | 305 | 4.3 | 5.2 | 0.00 | 0.00 | 0.00 | 83 | 1002.1 |
| 20260507015830 | 57 | 300 | 1.7 | 4.3 | 0.00 | 0.00 | 0.00 | 82 | 1002.1 |
| 20260507015328 | 58 | 301 | 3.5 | 4.3 | 0.00 | 0.00 | 0.00 | 83 | 1002.0 |
| 20260507014825 | 58 | 2 | 3.5 | 4.3 | 0.00 | 0.00 | 0.00 | 80 | 1002.3 |
| 20260507014321 | 58 | 300 | 2.6 | 4.3 | 0.00 | 0.00 | 0.00 | 81 | 1002.4 |
| 20260507013817 | 58 | 315 | 2.6 | 2.6 | 0.00 | 0.00 | 0.00 | 82 | 1002.2 |
| 20260507013315 | 58 | 342 | 2.6 | 2.6 | 0.00 | 0.00 | 0.00 | 82 | 1002.4 |
| 20260507012807 | 58 | 348 | 2.6 | 2.6 | 0.00 | 0.00 | 0.00 | 82 | 1002.4 |
| 20260507012306 | 58 | 354 | 2.6 | 2.6 | 0.00 | 0.00 | 0.00 | 81 | 1002.4 |
| 20260507011800 | 58 | 343 | 7.0 | 7.8 | 0.00 | 0.00 | 0.00 | 82 | 1002.3 |
| 20260507011257 | 59 | 332 | 3.5 | 6.1 | 0.00 | 0.00 | 0.00 | 81 | 1002.4 |
| 20260507010756 | 59 | 347 | 6.1 | 7.0 | 0.00 | 0.00 | 0.00 | 80 | 1002.4 |
| 20260507010252 | 59 | 333 | 2.6 | 2.6 | 0.00 | 0.00 | 0.00 | 80 | 1002.6 |
| 20260507005750 | 59 | 346 | 4.3 | 5.2 | 0.00 | 0.00 | 0.00 | 81 | 1002.6 |
| 20260507005246 | 59 | 299 | 3.5 | 4.3 | 0.00 | 0.00 | 0.00 | 81 | 1002.5 |
| 20260507004743 | 59 | 315 | 4.3 | 7.0 | 0.00 | 0.00 | 0.00 | 79 | 1002.3 |
| 20260507004241 | 60 | 15 | 3.5 | 4.3 | 0.00 | 0.00 | 0.00 | 81 | 1002.5 |
| 20260507003737 | 60 | 301 | 6.1 | 7.8 | 0.00 | 0.00 | 0.00 | 79 | 1002.5 |
| 20260507003232 | 60 | 304 | 4.3 | 5.2 | 0.00 | 0.00 | 0.00 | 80 | 1002.4 |
| 20260507002728 | 61 | 351 | 7.0 | 7.8 | 0.00 | 0.00 | 0.00 | 77 | 1002.3 |
| 20260507002225 | 60 | 266 | 4.3 | 5.2 | 0.00 | 0.00 | 0.00 | 79 | 1002.5 |
| 20260507001721 | 61 | 297 | 5.2 | 5.2 | 0.00 | 0.00 | 0.00 | 79 | 1002.4 |
| 20260507001219 | 61 | 327 | 4.3 | 5.2 | 0.00 | 0.00 | 0.00 | 78 | 1002.2 |
| 20260507000715 | 61 | 314 | 7.8 | 11.3 | 0.00 | 0.00 | 0.00 | 78 | 1002.3 |
| 20260507000212 | 62 | 266 | 3.5 | 5.2 | 0.00 | 0.00 | 0.00 | 77 | 1002.0 |
| 20260506235708 | 62 | 277 | 4.3 | 6.1 | 0.00 | 0.00 | 0.00 | 78 | 1002.4 |
| 20260506235203 | 62 | 311 | 3.5 | 5.2 | 0.00 | 0.00 | 0.00 | 77 | 1002.4 |
| 20260506234700 | 62 | 255 | 2.6 | 4.3 | 0.00 | 0.00 | 0.00 | 77 | 1002.1 |
| 20260506234157 | 62 | 296 | 1.7 | 1.7 | 0.00 | 0.00 | 0.00 | 77 | 1002.0 |
| 20260506233655 | 62 | 279 | 5.2 | 6.1 | 0.00 | 0.00 | 0.00 | 76 | 1002.3 |
| 20260506233151 | 63 | 293 | 2.6 | 2.6 | 0.00 | 0.00 | 0.00 | 77 | 1002.4 |
| 20260506232648 | 63 | 166 | 2.6 | 5.2 | 0.00 | 0.00 | 0.00 | 74 | 1002.2 |
| 20260506232143 | 63 | 302 | 3.5 | 4.3 | 0.00 | 0.00 | 0.00 | 76 | 1002.1 |
| 20260506231640 | 63 | 287 | 0.9 | 0.9 | 0.00 | 0.00 | 0.00 | 76 | 1002.1 |
| 20260506231139 | 63 | 333 | 3.5 | 4.3 | 0.00 | 0.00 | 0.00 | 77 | 1002.3 |
| 20260506230635 | 63 | 348 | 3.5 | 4.3 | 0.00 | 0.00 | 0.00 | 77 | 1002.3 |
| 20260506230132 | 63 | 338 | 0.9 | 1.7 | 0.00 | 0.00 | 0.00 | 77 | 1002.4 |
| 20260506225629 | 64 | 169 | 0.9 | 0.9 | 0.00 | 0.00 | 0.00 | 73 | 1002.4 |
| 20260506225125 | 64 | 337 | 0.9 | 0.9 | 0.00 | 0.00 | 0.00 | 75 | 1002.6 |
| 20260506224622 | 64 | 208 | 2.6 | 2.6 | 0.00 | 0.00 | 0.00 | 71 | 1002.5 |
| 20260506224118 | 63 | 327 | 0.9 | 0.9 | 0.00 | 0.00 | 0.00 | 71 | 1002.4 |
| 20260506223615 | 64 | 0 | 3.5 | 4.3 | 0.00 | 0.00 | 0.00 | 71 | 1002.4 |
| 20260506223111 | 65 | 218 | 3.5 | 4.3 | 0.00 | 0.00 | 0.00 | 69 | 1002.5 |
| 20260506222608 | 64 | 145 | 2.6 | 2.6 | 0.00 | 0.00 | 0.00 | 72 | 1002.5 |
| 20260506222104 | 66 | 304 | 1.7 | 1.7 | 0.00 | 0.00 | 0.00 | 71 | 1002.7 |
| 20260506221602 | 64 | 341 | 2.6 | 2.6 | 0.00 | 0.00 | 0.00 | 72 | 1002.7 |
| 20260506221100 | 65 | 21 | 0.9 | 1.7 | 0.00 | 0.00 | 0.00 | 72 | 1002.6 |
| 20260506220556 | 63 | 340 | 0.0 | 0.9 | 0.00 | 0.00 | 0.00 | 74 | 1002.7 |
| 20260506220051 | 63 | 218 | 0.9 | 0.9 | 0.00 | 0.00 | 0.00 | 77 | 1002.8 |
| 20260506215548 | 62 | 289 | 1.7 | 1.7 | 0.00 | 0.00 | 0.00 | 75 | 1002.9 |
| 20260506215044 | 62 | 314 | 0.0 | 0.0 | 0.00 | 0.00 | 0.00 | 77 | 1002.6 |
| 20260506214541 | 62 | 209 | 2.6 | 2.6 | 0.00 | 0.00 | 0.00 | 77 | 1002.7 |
| 20260506214038 | 62 | 314 | 2.6 | 2.6 | 0.00 | 0.00 | 0.00 | 76 | 1002.7 |
| 20260506213536 | 62 | 347 | 3.5 | 5.2 | 0.00 | 0.00 | 0.00 | 78 | 1002.8 |
| 20260506213033 | 61 | 91 | 0.9 | 1.7 | 0.00 | 0.00 | 0.00 | 79 | 1003.0 |
| 20260506212530 | 62 | 328 | 3.5 | 4.3 | 0.00 | 0.00 | 0.00 | 80 | 1002.9 |
| 20260506212025 | 63 | 251 | 0.9 | 1.7 | 0.00 | 0.00 | 0.00 | 78 | 1003.0 |
| 20260506211521 | 62 | 349 | 0.9 | 0.9 | 0.00 | 0.00 | 0.00 | 80 | 1003.0 |
| 20260506211019 | 63 | 18 | 1.7 | 1.7 | 0.00 | 0.00 | 0.00 | 79 | 1002.9 |
| 20260506210515 | 62 | 190 | 0.9 | 0.9 | 0.00 | 0.00 | 0.00 | 81 | 1002.8 |
| 20260506210012 | 62 | 326 | 0.9 | 1.7 | 0.00 | 0.00 | 0.00 | 79 | 1003.1 |
| 20260506205508 | 62 | 205 | 0.9 | 0.9 | 0.00 | 0.00 | 0.00 | 83 | 1003.1 |
| 20260506205004 | 61 | 65 | 0.0 | 0.9 | 0.00 | 0.00 | 0.00 | 86 | 1003.0 |
| 20260506204502 | 62 | 84 | 0.9 | 1.7 | 0.00 | 0.00 | 0.00 | 83 | 1003.2 |
| 20260506203959 | 61 | 7 | 0.9 | 0.9 | 0.00 | 0.00 | 0.00 | 83 | 1003.1 |
| 20260506203456 | 61 | 179 | 0.9 | 0.9 | 0.00 | 0.00 | 0.00 | 83 | 1003.2 |
| 20260506202953 | 60 | 351 | 0.9 | 0.9 | 0.00 | 0.00 | 0.00 | 85 | 1003.3 |
| 20260506202450 | 59 | 172 | 2.6 | 4.3 | 0.00 | 0.00 | 0.00 | 84 | 1003.2 |
| 20260506201946 | 60 | 329 | 0.9 | 1.7 | 0.00 | 0.00 | 0.00 | 84 | 1003.3 |
| 20260506201443 | 60 | 176 | 1.7 | 1.7 | 0.00 | 0.00 | 0.00 | 84 | 1003.1 |
| 20260506200940 | 59 | 182 | 2.6 | 4.3 | 0.00 | 0.00 | 0.00 | 84 | 1003.2 |
| 20260506200436 | 60 | 253 | 0.9 | 0.9 | 0.00 | 0.00 | 0.00 | 86 | 1003.0 |
| 20260506195933 | 60 | 247 | 1.7 | 1.7 | 0.00 | 0.00 | 0.00 | 83 | 1003.2 |
| 20260506195430 | 60 | 130 | 2.6 | 4.3 | 0.00 | 0.00 | 0.00 | 85 | 1003.1 |
| 20260506194926 | 60 | 56 | 0.9 | 0.9 | 0.00 | 0.00 | 0.00 | 87 | 1003.1 |
| 20260506194424 | 59 | 111 | 2.6 | 4.3 | 0.00 | 0.00 | 0.00 | 88 | 1003.1 |
| 20260506193921 | 59 | 108 | 0.9 | 1.7 | 0.00 | 0.00 | 0.00 | 88 | 1003.0 |
| 20260506193418 | 58 | 161 | 0.9 | 1.7 | 0.00 | 0.00 | 0.00 | 88 | 1003.3 |
| 20260506192914 | 58 | 1 | 0.0 | 0.9 | 0.00 | 0.00 | 0.00 | 88 | 1003.2 |
| 20260506192411 | 58 | 161 | 3.5 | 5.2 | 0.00 | 0.00 | 0.00 | 89 | 1003.3 |
| 20260506191908 | 58 | 175 | 1.7 | 1.7 | 0.00 | 0.00 | 0.00 | 88 | 1003.5 |
| 20260506191404 | 59 | 72 | 0.0 | 0.0 | 0.00 | 0.00 | 0.00 | 88 | 1003.3 |
| 20260506190901 | 58 | 280 | 0.0 | 0.0 | 0.00 | 0.00 | 0.00 | 88 | 1003.3 |
| 20260506190358 | 58 | 249 | 0.0 | 0.0 | 0.00 | 0.00 | 0.00 | 88 | 1003.1 |
| 20260506185855 | 59 | 210 | 0.9 | 0.9 | 0.00 | 0.00 | 0.00 | 87 | 1003.4 |
| 20260506185352 | 59 | 155 | 1.7 | 1.7 | 0.00 | 0.00 | 0.00 | 86 | 1003.1 |
| 20260506184848 | 59 | 254 | 0.9 | 0.9 | 0.00 | 0.00 | 0.00 | 87 | 1003.2 |
| 20260506184345 | 59 | 193 | 3.5 | 4.3 | 0.00 | 0.00 | 0.00 | 87 | 1003.1 |
| 20260506183843 | 59 | 307 | 1.7 | 1.7 | 0.00 | 0.00 | 0.00 | 87 | 1003.2 |
| 20260506183338 | 59 | 113 | 0.0 | 0.0 | 0.00 | 0.00 | 0.00 | 87 | 1003.1 |
| 20260506182836 | 58 | 211 | 0.0 | 0.9 | 0.00 | 0.00 | 0.00 | 87 | 1003.3 |
| 20260506182333 | 58 | 277 | 1.7 | 2.6 | 0.00 | 0.00 | 0.00 | 88 | 1003.0 |
| 20260506181830 | 58 | 198 | 1.7 | 2.6 | 0.00 | 0.00 | 0.00 | 89 | 1003.2 |
| 20260506181328 | 57 | 324 | 0.9 | 0.9 | 0.00 | 0.00 | 0.00 | 90 | 1003.3 |
| 20260506180825 | 58 | 332 | 2.6 | 2.6 | 0.00 | 0.00 | 0.00 | 89 | 1003.1 |
| 20260506180321 | 58 | 132 | 2.6 | 4.3 | 0.00 | 0.00 | 0.00 | 88 | 1003.0 |
| 20260506175817 | 58 | 138 | 0.0 | 0.9 | 0.00 | 0.00 | 0.00 | 89 | 1002.9 |
| 20260506175314 | 57 | 256 | 0.0 | 0.0 | 0.00 | 0.00 | 0.00 | 90 | 1003.0 |
| 20260506174812 | 56 | 356 | 0.9 | 0.9 | 0.00 | 0.00 | 0.00 | 91 | 1003.1 |
| 20260506174309 | 56 | 262 | 0.9 | 0.9 | 0.00 | 0.00 | 0.00 | 91 | 1002.9 |
| 20260506173806 | 56 | 302 | 2.6 | 2.6 | 0.00 | 0.00 | 0.00 | 92 | 1003.0 |
| 20260506173303 | 56 | 325 | 2.6 | 2.6 | 0.00 | 0.00 | 0.00 | 93 | 1002.9 |
| 20260506172800 | 55 | 290 | 1.7 | 1.7 | 0.00 | 0.00 | 0.00 | 93 | 1002.6 |
| 20260506172256 | 55 | 348 | 1.7 | 1.7 | 0.00 | 0.00 | 0.00 | 93 | 1002.9 |
| 20260506171754 | 55 | 332 | 1.7 | 2.6 | 0.00 | 0.00 | 0.00 | 94 | 1002.9 |
| 20260506171251 | 55 | 287 | 1.7 | 1.7 | 0.00 | 0.00 | 0.00 | 94 | 1002.8 |
| 20260506170749 | 55 | 326 | 2.6 | 2.6 | 0.00 | 0.00 | 0.00 | 94 | 1002.9 |
| 20260506170245 | 55 | 340 | 0.9 | 0.9 | 0.00 | 0.00 | 0.00 | 94 | 1002.8 |
| 20260506165743 | 55 | 326 | 1.7 | 2.6 | 0.00 | 0.00 | 0.00 | 94 | 1002.7 |
| 20260506165240 | 55 | 313 | 0.9 | 0.9 | 0.00 | 0.00 | 0.00 | 94 | 1002.8 |
| 20260506164737 | 55 | 113 | 0.0 | 0.9 | 0.00 | 0.00 | 0.00 | 95 | 1002.5 |
| 20260506164234 | 55 | 190 | 0.0 | 0.0 | 0.00 | 0.00 | 0.00 | 96 | 1002.7 |
| 20260506163731 | 54 | 178 | 0.9 | 0.9 | 0.00 | 0.00 | 0.00 | 96 | 1002.8 |
| 20260506163226 | 54 | 214 | 0.0 | 0.9 | 0.00 | 0.00 | 0.00 | 96 | 1002.8 |
| 20260506162722 | 54 | 230 | 0.0 | 0.0 | 0.00 | 0.00 | 0.00 | 96 | 1002.7 |
| 20260506162220 | 54 | 172 | 0.0 | 0.0 | 0.00 | 0.00 | 0.00 | 96 | 1002.9 |
| 20260506161717 | 54 | 227 | 0.9 | 0.9 | 0.00 | 0.00 | 0.00 | 95 | 1002.8 |
| 20260506161214 | 54 | 322 | 0.9 | 0.9 | 0.00 | 0.00 | 0.00 | 94 | 1002.7 |
| 20260506160712 | 54 | 196 | 1.7 | 1.7 | 0.00 | 0.00 | 0.00 | 94 | 1002.6 |
| 20260506160208 | 55 | 314 | 0.9 | 1.7 | 0.00 | 0.00 | 0.00 | 94 | 1002.5 |
| 20260506155706 | 54 | 165 | 0.9 | 1.7 | 0.00 | 0.00 | 0.00 | 94 | 1002.4 |
| 20260506155203 | 54 | 135 | 0.9 | 0.9 | 0.00 | 0.00 | 0.00 | 94 | 1002.4 |
| 20260506153305 | 55 | 143 | 1.7 | 1.7 | 0.00 | 0.00 | 0.00 | 94 | 1002.0 |
| 20260506152802 | 54 | 170 | 1.7 | 1.7 | 0.00 | 0.00 | 0.00 | 93 | 1001.9 |
| 20260506152259 | 54 | 137 | 1.7 | 1.7 | 0.00 | 0.00 | 0.00 | 93 | 1001.9 |
| 20260506151758 | 54 | 96 | 0.9 | 1.7 | 0.00 | 0.00 | 0.00 | 93 | 1002.2 |
| 20260506151254 | 53 | 96 | 0.9 | 0.9 | 0.00 | 0.00 | 0.00 | 94 | 1002.3 |
| 20260506150751 | 53 | 324 | 0.0 | 0.0 | 0.00 | 0.00 | 0.00 | 95 | 1002.1 |
| 20260506150248 | 53 | 347 | 0.0 | 0.0 | 0.00 | 0.00 | 0.00 | 96 | 1002.3 |
| 20260506145745 | 53 | 302 | 0.0 | 0.9 | 0.00 | 0.00 | 0.00 | 96 | 1002.5 |
| 20260506145241 | 53 | 298 | 1.7 | 1.7 | 0.00 | 0.00 | 0.00 | 97 | 1002.5 |
| 20260506144739 | 53 | 50 | 0.9 | 0.9 | 0.00 | 0.00 | 0.00 | 97 | 1002.7 |
| 20260506144236 | 53 | 328 | 0.9 | 0.9 | 0.00 | 0.00 | 0.00 | 97 | 1002.6 |
| 20260506143733 | 53 | 299 | 0.9 | 0.9 | 0.00 | 0.00 | 0.00 | 97 | 1002.5 |
| 20260506143231 | 53 | 356 | 1.7 | 1.7 | 0.00 | 0.00 | 0.00 | 98 | 1002.4 |
| 20260506142729 | 52 | 309 | 0.0 | 0.0 | 0.00 | 0.00 | 0.00 | 98 | 1002.3 |
| 20260506142227 | 52 | 268 | 0.0 | 0.0 | 0.00 | 0.00 | 0.00 | 98 | 1002.1 |
| 20260506141725 | 53 | 312 | 2.6 | 2.6 | 0.00 | 0.00 | 0.00 | 98 | 1002.3 |
| 20260506141223 | 52 | 301 | 0.9 | 1.7 | 0.00 | 0.00 | 0.00 | 98 | 1002.3 |
| 20260506140720 | 52 | 301 | 2.6 | 2.6 | 0.00 | 0.00 | 0.00 | 98 | 1002.0 |
| 20260506140217 | 52 | 318 | 0.9 | 0.9 | 0.00 | 0.00 | 0.00 | 99 | 1001.8 |
| 20260506135713 | 52 | 273 | 0.9 | 0.9 | 0.00 | 0.00 | 0.00 | 99 | 1001.5 |
| 20260506135210 | 52 | 277 | 0.0 | 0.9 | 0.00 | 0.00 | 0.00 | 99 | 1001.8 |
| 20260506134707 | 52 | 269 | 0.0 | 0.0 | 0.00 | 0.00 | 0.00 | 99 | 1001.8 |
| 20260506134203 | 52 | 295 | 0.0 | 0.0 | 0.00 | 0.00 | 0.00 | 99 | 1001.7 |
| 20260506133700 | 52 | 310 | 0.0 | 0.0 | 0.00 | 0.00 | 0.00 | 99 | 1001.6 |
| 20260506133157 | 52 | 267 | 0.0 | 0.0 | 0.00 | 0.00 | 0.00 | 99 | 1001.6 |
| 20260506132654 | 52 | 294 | 0.0 | 0.0 | 0.00 | 0.00 | 0.00 | 99 | 1001.6 |
| 20260506132151 | 51 | 278 | 0.0 | 0.0 | 0.00 | 0.00 | 0.00 | 99 | 1001.5 |
| 20260506131649 | 51 | 298 | 0.0 | 0.0 | 0.00 | 0.00 | 0.00 | 99 | 1001.5 |
| 20260506131145 | 51 | 285 | 0.0 | 0.0 | 0.00 | 0.00 | 0.00 | 99 | 1001.5 |
| 20260506130641 | 51 | 278 | 0.0 | 0.0 | 0.00 | 0.00 | 0.00 | 99 | 1001.4 |
| 20260506130139 | 51 | 194 | 0.0 | 0.0 | 0.00 | 0.00 | 0.00 | 99 | 1001.4 |
| 20260506125637 | 52 | 194 | 0.0 | 0.0 | 0.00 | 0.00 | 0.00 | 99 | 1001.3 |
| 20260506125134 | 52 | 194 | 0.0 | 0.0 | 0.00 | 0.00 | 0.00 | 99 | 1001.4 |
| 20260506124632 | 52 | 194 | 0.0 | 0.0 | 0.00 | 0.00 | 0.00 | 99 | 1001.2 |
| 20260506124130 | 52 | 175 | 0.0 | 0.0 | 0.00 | 0.00 | 0.00 | 98 | 1001.0 |
| 20260506123627 | 52 | 188 | 0.0 | 0.0 | 0.00 | 0.00 | 0.00 | 98 | 1001.0 |
| 20260506123126 | 52 | 173 | 0.0 | 0.0 | 0.00 | 0.00 | 0.00 | 98 | 1001.0 |
| 20260506122622 | 53 | 174 | 0.9 | 0.9 | 0.00 | 0.00 | 0.00 | 98 | 1001.1 |
| 20260506122120 | 53 | 200 | 0.0 | 0.0 | 0.00 | 0.00 | 0.00 | 98 | 1001.2 |
| 20260506121617 | 53 | 201 | 0.0 | 0.0 | 0.00 | 0.00 | 0.00 | 97 | 1001.2 |
| 20260506121114 | 53 | 176 | 0.0 | 0.0 | 0.00 | 0.00 | 0.00 | 97 | 1001.0 |
| 20260506120612 | 53 | 262 | 0.0 | 0.0 | 0.00 | 0.00 | 0.00 | 97 | 1000.9 |
| 20260506120109 | 53 | 262 | 0.0 | 0.0 | 0.00 | 0.00 | 0.00 | 97 | 1001.0 |
| 20260506115607 | 53 | 286 | 0.0 | 0.0 | 0.00 | 0.00 | 0.00 | 97 | 1001.1 |
| 20260506115105 | 53 | 291 | 0.0 | 0.0 | 0.00 | 0.00 | 0.00 | 97 | 1001.1 |
| 20260506114602 | 53 | 291 | 0.9 | 0.9 | 0.00 | 0.00 | 0.00 | 97 | 1001.0 |
| 20260506114100 | 53 | 276 | 0.9 | 0.9 | 0.00 | 0.00 | 0.00 | 97 | 1000.9 |
| 20260506113558 | 53 | 290 | 0.9 | 0.9 | 0.00 | 0.00 | 0.00 | 97 | 1001.0 |
| 20260506113055 | 53 | 256 | 0.0 | 0.9 | 0.00 | 0.00 | 0.00 | 97 | 1000.8 |
| 20260506112551 | 53 | 291 | 0.0 | 0.0 | 0.00 | 0.00 | 0.00 | 97 | 1000.8 |
| 20260506112049 | 53 | 291 | 0.0 | 0.0 | 0.00 | 0.00 | 0.00 | 97 | 1000.7 |
| 20260506111547 | 53 | 295 | 0.0 | 0.0 | 0.00 | 0.00 | 0.00 | 97 | 1000.8 |
| 20260506111044 | 53 | 296 | 0.0 | 0.0 | 0.00 | 0.00 | 0.00 | 97 | 1000.9 |
| 20260506110541 | 53 | 294 | 0.0 | 0.0 | 0.00 | 0.00 | 0.00 | 97 | 1000.9 |
| 20260506110038 | 53 | 291 | 0.0 | 0.9 | 0.00 | 0.00 | 0.00 | 97 | 1000.8 |
| 20260506105534 | 53 | 292 | 0.0 | 0.0 | 0.00 | 0.00 | 0.00 | 97 | 1000.6 |
| 20260506105032 | 53 | 298 | 0.9 | 0.9 | 0.00 | 0.00 | 0.00 | 98 | 1000.6 |
| 20260506104530 | 53 | 295 | 0.0 | 0.9 | 0.00 | 0.00 | 0.00 | 98 | 1000.3 |
| 20260506104027 | 53 | 290 | 0.0 | 0.9 | 0.00 | 0.00 | 0.00 | 98 | 1000.4 |
| 20260506103524 | 53 | 289 | 0.0 | 0.9 | 0.00 | 0.00 | 0.00 | 98 | 1000.3 |
| 20260506103021 | 53 | 295 | 0.0 | 0.0 | 0.00 | 0.00 | 0.00 | 98 | 1000.5 |
| 20260506102520 | 53 | 295 | 0.0 | 0.0 | 0.00 | 0.00 | 0.00 | 97 | 1000.3 |
| 20260506102017 | 53 | 295 | 0.0 | 0.0 | 0.00 | 0.00 | 0.00 | 97 | 1000.1 |
| 20260506101513 | 53 | 290 | 0.0 | 0.9 | 0.00 | 0.00 | 0.00 | 97 | 1000.3 |
| 20260506101010 | 53 | 288 | 0.0 | 0.0 | 0.00 | 0.00 | 0.00 | 97 | 1000.0 |
| 20260506100508 | 53 | 289 | 0.9 | 0.9 | 0.00 | 0.00 | 0.00 | 97 | 1000.2 |
| 20260506100007 | 53 | 291 | 0.0 | 0.0 | 0.00 | 0.00 | 0.00 | 97 | 1000.0 |
| 20260506095505 | 53 | 290 | 0.0 | 0.0 | 0.00 | 0.00 | 0.00 | 97 | 1000.0 |
| 20260506095000 | 53 | 291 | 0.0 | 0.0 | 0.00 | 0.00 | 0.00 | 97 | 999.8 |
| 20260506094459 | 53 | 291 | 0.0 | 0.0 | 0.00 | 0.00 | 0.00 | 97 | 1000.0 |
| 20260506093956 | 53 | 291 | 0.0 | 0.0 | 0.00 | 0.00 | 0.00 | 97 | 999.9 |
| 20260506093454 | 53 | 292 | 0.0 | 0.0 | 0.00 | 0.00 | 0.00 | 97 | 999.9 |
| 20260506092951 | 53 | 291 | 0.0 | 0.0 | 0.00 | 0.00 | 0.00 | 97 | 1000.0 |
| 20260506092449 | 53 | 290 | 0.0 | 0.0 | 0.00 | 0.00 | 0.00 | 96 | 999.8 |
| 20260506091945 | 53 | 294 | 0.0 | 0.0 | 0.00 | 0.00 | 0.00 | 96 | 999.7 |
| 20260506091444 | 54 | 263 | 0.0 | 0.9 | 0.00 | 0.00 | 0.00 | 96 | 999.7 |
| 20260506090941 | 54 | 260 | 0.9 | 0.9 | 0.00 | 0.00 | 0.00 | 96 | 999.8 |
| 20260506090439 | 54 | 206 | 0.0 | 0.0 | 0.00 | 0.00 | 0.00 | 96 | 1000.1 |
| 20260506085935 | 54 | 190 | 0.0 | 0.0 | 0.00 | 0.00 | 0.00 | 96 | 999.8 |
| 20260506085432 | 54 | 191 | 0.0 | 0.0 | 0.00 | 0.00 | 0.00 | 96 | 999.8 |
| 20260506084928 | 54 | 190 | 0.0 | 0.0 | 0.00 | 0.00 | 0.00 | 96 | 999.9 |
| 20260506084425 | 54 | 190 | 0.0 | 0.0 | 0.00 | 0.00 | 0.00 | 96 | 999.7 |
| 20260506083921 | 54 | 190 | 0.0 | 0.0 | 0.00 | 0.00 | 0.00 | 95 | 999.5 |
| 20260506083419 | 54 | 188 | 0.0 | 0.9 | 0.00 | 0.00 | 0.00 | 95 | 999.8 |
| 20260506082916 | 54 | 179 | 0.9 | 0.9 | 0.00 | 0.00 | 0.00 | 95 | 999.8 |
| 20260506082413 | 54 | 224 | 0.0 | 0.0 | 0.00 | 0.00 | 0.00 | 95 | 999.8 |
| 20260506081908 | 54 | 235 | 0.0 | 0.0 | 0.00 | 0.00 | 0.00 | 95 | 999.9 |
| 20260506081407 | 54 | 290 | 0.9 | 0.9 | 0.00 | 0.00 | 0.00 | 95 | 999.8 |
| 20260506080904 | 54 | 288 | 0.0 | 0.0 | 0.00 | 0.00 | 0.00 | 95 | 999.5 |
| 20260506080400 | 54 | 288 | 0.0 | 0.0 | 0.00 | 0.00 | 0.00 | 95 | 999.8 |
| 20260506073344 | 54 | 285 | 0.0 | 0.0 | 0.00 | 0.00 | 0.00 | 96 | 999.4 |
| 20260506072841 | 54 | 284 | 0.9 | 0.9 | 0.00 | 0.00 | 0.00 | 96 | 999.4 |
| 20260506072339 | 53 | 284 | 0.0 | 0.0 | 0.00 | 0.00 | 0.00 | 97 | 999.4 |
| 20260506071837 | 53 | 284 | 0.0 | 0.0 | 0.00 | 0.00 | 0.00 | 97 | 999.5 |
| 20260506071335 | 53 | 284 | 0.0 | 0.9 | 0.00 | 0.00 | 0.00 | 97 | 999.2 |
| 20260506070831 | 53 | 268 | 0.9 | 0.9 | 0.00 | 0.00 | 0.00 | 97 | 999.2 |
| 20260506070328 | 53 | 266 | 0.0 | 0.0 | 0.00 | 0.00 | 0.00 | 97 | 999.1 |
| 20260506062306 | 53 | 205 | 0.9 | 0.9 | 0.00 | 0.02 | 0.02 | 98 | 998.9 |
| 20260506061801 | 53 | 199 | 0.9 | 0.9 | 0.00 | 0.02 | 0.02 | 98 | 998.8 |
| 20260506061258 | 53 | 206 | 0.9 | 0.9 | 0.00 | 0.02 | 0.02 | 98 | 999.0 |
| 20260506060757 | 53 | 206 | 0.9 | 0.9 | 0.00 | 0.02 | 0.02 | 98 | 998.7 |
| 20260506060254 | 52 | 209 | 0.9 | 0.9 | 0.00 | 0.02 | 0.02 | 98 | 998.8 |